User: anonymous   Login
Location: G�kdere
(37.0328°N, 30.9000°E)
Time: 15:29:12
(UTC+00:00)
Language:

Cosmos 1959 Rocket - Orbit

View from above orbital plane
View from above orbital plane
View from above satellite
View from above satellite

Ground track
Ground track

The orbit data is extracted from the following two-line orbital elements,

1 19325U 88062B   21137.83482187  .00000042  00000-0  26229-4 0  9990
2 19325  82.9535  39.5390 0033593 184.5908 242.9712 13.77633555612248
Epoch (UTC): 17 May 2021 20:02:08
Eccentricity: 0.0033593
inclination: 82.9535°
perigee height: 947 km
apogee height: 997 km
right ascension of ascending node: 39.5390°
argument of perigee: 184.5908°
revolutions per day: 13.77633555
mean anomaly at epoch: 242.9712°
orbit number at epoch: 61224

The dashed part of the orbit path shows where the satellite is in the earth's shadow,  

DLR